• In Belarus
  • List of Countries
  • For 7 days
  • Water Temperature
  • Weather Map
  • Weather Widgets
  • user-avatar
    Login

    Hourly Weather Aksengir

    Today, 17 September, Tuesday

    Time Temperature Precipitation Wind Pressure Humidity
    00:00 +17°C° 0 mm 2 mps 706 mmHg 35%
    01:00 +18°C° 0 mm 1 mps 706 mmHg 36%
    02:00 +18°C° 0 mm 1 mps 706 mmHg 37%
    03:00 +16°C° 0 mm 1 mps 706 mmHg 37%
    04:00 +16°C° 0 mm 2 mps 706 mmHg 38%
    05:00 +16°C° 0 mm 2 mps 707 mmHg 39%
    06:00 +17°C° 0 mm 3 mps 707 mmHg 38%
    07:00 +19°C° 0 mm 4 mps 708 mmHg 38%
    08:00 +20°C° 0 mm 4 mps 709 mmHg 37%
    09:00 +21°C° 0 mm 3 mps 709 mmHg 34%
    10:00 +22°C° 0 mm 3 mps 709 mmHg 30%
    11:00 +24°C° 0 mm 2 mps 709 mmHg 27%
    12:00 +25°C° 0 mm 2 mps 709 mmHg 26%
    13:00 +25°C° 0 mm 2 mps 708 mmHg 26%
    14:00 +26°C° 0 mm 2 mps 708 mmHg 25%
    15:00 +25°C° 0 mm 2 mps 708 mmHg 27%
    16:00 +25°C° 0 mm 3 mps 708 mmHg 29%
    17:00 +23°C° 0 mm 4 mps 708 mmHg 31%
    18:00 +22°C° 0 mm 3 mps 708 mmHg 33%
    19:00 +20°C° 0 mm 3 mps 708 mmHg 35%
    20:00 +19°C° 0 mm 3 mps 708 mmHg 38%
    21:00 +18°C° 0 mm 3 mps 708 mmHg 38%
    22:00 +18°C° 0 mm 3 mps 707 mmHg 37%
    23:00 +17°C° 0 mm 2 mps 707 mmHg 37%

    Tomorrow, 18 September, Wednesday

    Time Temperature Precipitation Wind Pressure Humidity
    00:00 +17°C° 0 mm 2 mps 707 mmHg 37%
    01:00 +17°C° 0 mm 3 mps 706 mmHg 37%
    02:00 +16°C° 0 mm 3 mps 706 mmHg 38%
    03:00 +16°C° 0 mm 3 mps 706 mmHg 38%
    04:00 +16°C° 0 mm 3 mps 705 mmHg 39%
    05:00 +14°C° 0 mm 3 mps 705 mmHg 40%
    06:00 +17°C° 0 mm 3 mps 705 mmHg 38%
    07:00 +18°C° 0 mm 3 mps 705 mmHg 36%
    08:00 +19°C° 0 mm 3 mps 705 mmHg 34%
    09:00 +21°C° 0 mm 4 mps 705 mmHg 31%
    10:00 +23°C° 0 mm 4 mps 704 mmHg 27%
    11:00 +26°C° 0 mm 4 mps 704 mmHg 24%
    12:00 +27°C° 0 mm 4 mps 704 mmHg 23%
    13:00 +28°C° 0 mm 4 mps 703 mmHg 21%
    14:00 +29°C° 0 mm 4 mps 703 mmHg 20%
    15:00 +29°C° 0 mm 3 mps 703 mmHg 22%
    16:00 +28°C° 0 mm 3 mps 703 mmHg 24%
    17:00 +28°C° 0 mm 2 mps 703 mmHg 26%
    18:00 +26°C° 0 mm 2 mps 703 mmHg 26%
    19:00 +24°C° 0 mm 2 mps 703 mmHg 26%
    20:00 +21°C° 0 mm 2 mps 703 mmHg 26%
    21:00 +21°C° 0 mm 2 mps 702 mmHg 27%
    22:00 +21°C° 0 mm 1 mps 702 mmHg 27%
    23:00 +21°C° 0 mm 1 mps 702 mmHg 28%

    Day after tomorrow, 19 September, Thursday

    Time Temperature Precipitation Wind Pressure Humidity
    00:00 +21°C° 0 mm 1 mps 702 mmHg 28%
    01:00 +20°C° 0 mm 2 mps 702 mmHg 27%
    02:00 +20°C° 0 mm 2 mps 702 mmHg 27%
    03:00 +20°C° 0 mm 2 mps 703 mmHg 28%
    04:00 +20°C° 0 mm 2 mps 703 mmHg 28%
    05:00 +20°C° 0 mm 2 mps 704 mmHg 29%
    06:00 +23°C° 0 mm 1 mps 704 mmHg 27%
    07:00 +25°C° 0 mm 1 mps 704 mmHg 25%
    08:00 +27°C° 0 mm 1 mps 705 mmHg 23%
    09:00 +28°C° 0 mm 1 mps 705 mmHg 20%
    10:00 +30°C° 0 mm 1 mps 705 mmHg 17%
    11:00 +32°C° 0 mm 2 mps 706 mmHg 15%
    12:00 +32°C° 0 mm 2 mps 705 mmHg 14%
    13:00 +34°C° 0 mm 2 mps 705 mmHg 14%
    14:00 +34°C° 0 mm 2 mps 705 mmHg 14%
    15:00 +32°C° 0 mm 2 mps 705 mmHg 17%
    16:00 +31°C° 0 mm 2 mps 705 mmHg 19%
    17:00 +30°C° 0 mm 2 mps 705 mmHg 22%
    18:00 +29°C° 0 mm 2 mps 705 mmHg 23%
    19:00 +27°C° 0 mm 3 mps 705 mmHg 24%
    20:00 +25°C° 0 mm 3 mps 705 mmHg 25%
    21:00 +25°C° 0 mm 3 mps 705 mmHg 26%
    22:00 +24°C° 0 mm 2 mps 704 mmHg 26%
    23:00 +23°C° 0 mm 2 mps 704 mmHg 27%

    20 September, Friday

    Time Temperature Precipitation Wind Pressure Humidity
    00:00 +23°C° 0 mm 2 mps 704 mmHg 26%
    01:00 +23°C° 0 mm 2 mps 704 mmHg 26%
    02:00 +21°C° 0 mm 2 mps 703 mmHg 26%
    03:00 +21°C° 0 mm 2 mps 703 mmHg 26%
    04:00 +21°C° 0 mm 2 mps 704 mmHg 26%
    05:00 +20°C° 0 mm 2 mps 704 mmHg 27%
    06:00 +23°C° 0 mm 1 mps 704 mmHg 25%
    07:00 +25°C° 0 mm 1 mps 704 mmHg 24%
    08:00 +27°C° 0 mm 1 mps 705 mmHg 22%
    09:00 +29°C° 0 mm 1 mps 705 mmHg 20%
    10:00 +30°C° 0 mm 1 mps 705 mmHg 18%
    11:00 +32°C° 0 mm 2 mps 705 mmHg 17%
    12:00 +32°C° 0 mm 2 mps 705 mmHg 16%
    13:00 +34°C° 0 mm 2 mps 705 mmHg 15%
    14:00 +35°C° 0 mm 2 mps 704 mmHg 14%
    15:00 +34°C° 0 mm 2 mps 704 mmHg 16%
    16:00 +32°C° 0 mm 2 mps 704 mmHg 18%
    17:00 +31°C° 0 mm 1 mps 705 mmHg 20%
    18:00 +29°C° 0 mm 1 mps 705 mmHg 21%
    19:00 +27°C° 0 mm 2 mps 705 mmHg 23%
    20:00 +25°C° 0 mm 2 mps 705 mmHg 25%
    21:00 +25°C° 0 mm 2 mps 705 mmHg 26%
    22:00 +24°C° 0 mm 2 mps 705 mmHg 26%
    23:00 +24°C° 0 mm 2 mps 705 mmHg 27%

    21 September, Saturday

    Time Temperature Precipitation Wind Pressure Humidity
    00:00 +23°C° 0 mm 2 mps 704 mmHg 28%
    01:00 +23°C° 0 mm 2 mps 704 mmHg 29%
    02:00 +21°C° 0 mm 2 mps 704 mmHg 30%
    03:00 +21°C° 0 mm 2 mps 704 mmHg 31%
    04:00 +20°C° 0 mm 2 mps 704 mmHg 32%
    05:00 +19°C° 0 mm 2 mps 704 mmHg 33%
    06:00 +21°C° 0 mm 2 mps 704 mmHg 32%
    07:00 +23°C° 0 mm 2 mps 704 mmHg 31%
    08:00 +24°C° 0 mm 2 mps 704 mmHg 30%
    09:00 +26°C° 0 mm 2 mps 704 mmHg 28%
    10:00 +27°C° 0 mm 2 mps 704 mmHg 25%
    11:00 +29°C° 0 mm 2 mps 704 mmHg 23%
    12:00 +30°C° 0 mm 2 mps 704 mmHg 22%
    13:00 +30°C° 0 mm 2 mps 703 mmHg 20%
    14:00 +31°C° 0 mm 2 mps 703 mmHg 19%
    15:00 +31°C° 0 mm 2 mps 703 mmHg 21%
    16:00 +30°C° 0 mm 2 mps 702 mmHg 23%
    17:00 +29°C° 0 mm 2 mps 702 mmHg 25%
    18:00 +27°C° 0 mm 1 mps 702 mmHg 27%
    19:00 +26°C° 0 mm 1 mps 702 mmHg 28%
    20:00 +24°C° 0 mm 1 mps 702 mmHg 30%
    21:00 +23°C° 0 mm 1 mps 701 mmHg 30%
    22:00 +23°C° 0 mm 1 mps 701 mmHg 30%
    23:00 +23°C° 0 mm 1 mps 701 mmHg 30%

    22 September, Sunday

    Time Temperature Precipitation Wind Pressure Humidity
    00:00 +22°C° 0 mm 1 mps 701 mmHg 30%
    01:00 +22°C° 0 mm 1 mps 700 mmHg 31%
    02:00 +22°C° 0 mm 1 mps 700 mmHg 31%
    03:00 +21°C° 0 mm 1 mps 700 mmHg 31%
    04:00 +21°C° 0 mm 1 mps 700 mmHg 31%
    05:00 +21°C° 0 mm 1 mps 700 mmHg 31%
    06:00 +23°C° 0 mm 1 mps 701 mmHg 28%
    07:00 +23°C° 0 mm 0 mps 701 mmHg 25%
    08:00 +26°C° 0 mm 0 mps 702 mmHg 22%
    09:00 +29°C° 0 mm 1 mps 702 mmHg 20%
    10:00 +31°C° 0 mm 1 mps 702 mmHg 19%
    11:00 +34°C° 0 mm 2 mps 702 mmHg 17%
    12:00 +35°C° 0 mm 2 mps 702 mmHg 15%
    13:00 +35°C° 0 mm 2 mps 702 mmHg 14%
    14:00 +36°C° 0 mm 2 mps 701 mmHg 13%
    15:00 +35°C° 0 mm 2 mps 701 mmHg 14%
    16:00 +34°C° 0 mm 2 mps 701 mmHg 16%
    17:00 +32°C° 0 mm 2 mps 701 mmHg 17%
    18:00 +30°C° 0 mm 2 mps 701 mmHg 19%
    19:00 +28°C° 0 mm 2 mps 701 mmHg 20%
    20:00 +26°C° 0 mm 2 mps 701 mmHg 21%
    21:00 +26°C° 0 mm 2 mps 701 mmHg 22%
    22:00 +25°C° 0 mm 2 mps 701 mmHg 22%
    23:00 +25°C° 0 mm 1 mps 700 mmHg 22%
    Show more